Showing default

GOES 13, 29155

Orbit data source: Space-Track

GOES 13, 29155 is a payload satellite owned by NOAA (US) in GEO that was launched on Wed, 24 May 2006 UTC via a DELTA 4M+(4,2) launch vehicle from the Air Force Eastern Test Range (AFETR). Payload-class satellites include a variety of spacecraft equipped with specific instruments for various scientific and technological missions. These include communications satellites like Starlink; space stations such as the ISS; scientific satellites like the Hubble; Earth observation satellites from companies like Planet Labs, Umbra, and HawkEye 360; GPS; miniature CubeSats for education and research; and military/defense satellites.

Not visible in the next 10 days
Identifier
29155, 2006-018A
Orbit
GEO
Last TLE update
10 hours ago
Origin
Manufacturer
Boeing/ES
Mission
On reserve Civil Weather
Bus & Motor
HS-601, R-4D-11-300
Mass
3,209 kg wet, 1,543 kg dry
Launch date (UTC)
2006-05-24 (19 years ago)
Launch vehicle
DELTA 4M+(4,2)
Launch site
Air Force Eastern Test Range (AFETR)
Object type
Payload
Rocket body
Debris
Shape & HBR
Box + 1 Pan + 1 Ant, 10 m
Radar Cross Section
30.033 m², Large (>1 m²)

Expand to show TLE details & history

TLE from 10 hours ago
0 GOES 13
1 29155U 06018A   25132.88525692 -.00000035  00000-0  00000-0 0  9994
2 29155   3.4909  81.3025 0063323 265.7231 228.9369  0.98812486 39299
Epoch: 2025-05-12T21:14Z
Definitive object data (Epoch: 2025-05-12T21:14:46.197Z)
Latitude
2.48246°
Longitude
25.88263°
Altitude
36,378.308 km
Speed
3.047 km/s
True Right ascension
14h 21m 52s
True Declination
2° 28' 48"
Sunlit
Object was in daylight at TLE epoch
Visualization TLE readout
Latitude
-3.3162°
Longitude
178.82001°
Altitude
35,949.799 km
Speed
3.078 km/s
Apparent Right ascension
00h 52m 39s
Apparent Declination
-8° 08' 43"
Sunlit
Object is in daylight
Visualization observer readout
Local Sidereal Time
15:55:30
Azimuth
64.706° ENE
Elevation
-38.395°
Doppler factor
1
Orbital elements
Apogee altitude
36,471.399 km
Perigee altitude
35,932.142 km
Semi-major axis
42,579.908 km
Eccentricity
0.0063323
Inclination
3.4909°
RAAN
81.3025°
Arg. of periapsis
265.7231°
True anomaly
228.39262°
Mean anomaly
228.9369°
Eccentric anomaly
228.66448°
Mean motion
0.24702 °/min
BSTAR
Unknown
Orbital period
1457.36 mins
Loading historical data...
29155 neighbors
Loading maneuver chart data...
Loading SW <> Apogee altitude chart data...
Loading historical data...
Loading historical data...
Loading historical data...
Loading historical data...
Loading historical data...
Loading historical data...
Loading historical data...
Other satellites on launch #18 in the year 2006 (2006-05-24 UTC)

GOES 13 Visibility forecast

Observer location: undefined°, undefined°

GOES 13 is not visible in the next 10 days
Span
Click to sort rows by Start time (UTC) header in descending order
Start Az.
Max El. time (UTC)
Max El. Az.
Max El.
End time (UTC)
End Az.
|